Weather History for KJEF - September, 2013

Change the Weather History Date:

Sunday, September 15, 2013

  Actual Average Record
Temperature  
Mean Temperature 70 °F -  
Max Temperature 84 °F 79 °F 102 °F (1939)
Min Temperature 57 °F 54 °F 38 °F (1961)
Cooling Degree Days 6    
Growing Degree Days 20 (Base 50)    
Moisture  
Dew Point 57 °F    
Average Humidity 63    
Maximum Humidity 87    
Minimum Humidity 37    
Precipitation  
Precipitation 0.06 in - - ()
Sea Level Pressure  
Sea Level Pressure 30.00 in    
Wind  
Wind Speed 3 mph (South)    
Max Wind Speed 8 mph    
Max Gust Speed -    
Visibility 10 miles    
Events Thunderstorm    
Averages and records for this station are not official NWS values.
T = Trace of Precipitation, MM = Missing Value Source: NWS Daily Summary

Daily Weather History Graph

Daily Weather History Graph

Search for Another Location

Airport or City:

Trip Planner

Search our weather history database for the weather conditions in past years. The results will help you decide how hot, cold, wet, or windy it might be!

Date:

Astronomy

Sep. 15, 2013 Rise Set
Actual Time 6:50 AM CDT 7:16 PM CDT
Civil Twilight 6:23 AM CDT 7:42 PM CDT
Nautical Twilight 5:52 AM CDT 8:14 PM CDT
Astronomical Twilight 5:20 AM CDT 8:46 PM CDT
Moon 4:42 PM CDT (9/15) 2:31 AM CDT (9/15)
Length of Visible Light 13h 19m
Length of Day
12h 25m
Waxing Gibbous, 82% of the Moon is Illuminated
Sep 15
Waxing Gibbous
Sep 19
Full
Sep 26
Last Quarter
Oct 4
New
Oct 11
First Quarter

Hourly Weather History & Observations

Time (CDT) Temp. Heat Index Dew Point Humidity Pressure Visibility Wind Dir Wind Speed Gust Speed Precip Events Conditions
12:53 AM 59.0 °F - 48.0 °F 67% 29.99 in 10.0 mi Calm Calm - N/A   Clear
1:53 AM 57.0 °F - 48.0 °F 72% 29.99 in 10.0 mi Calm Calm - N/A   Clear
2:53 AM 60.1 °F - 48.0 °F 64% 29.98 in 10.0 mi ESE 3.5 mph - N/A   Clear
3:53 AM 62.1 °F - 48.0 °F 60% 29.99 in 10.0 mi SSE 3.5 mph - N/A   Clear
4:53 AM 61.0 °F - 48.9 °F 64% 29.98 in 10.0 mi SE 3.5 mph - N/A   Clear
5:53 AM 61.0 °F - 48.0 °F 62% 29.99 in 10.0 mi SE 6.9 mph - N/A   Clear
6:53 AM 62.1 °F - 48.0 °F 60% 29.99 in 10.0 mi SSE 8.1 mph - N/A   Partly Cloudy
7:53 AM 62.1 °F - 48.0 °F 60% 30.00 in 10.0 mi SSE 6.9 mph - N/A   Clear
8:53 AM 64.0 °F - 48.0 °F 56% 30.00 in 10.0 mi South 5.8 mph - N/A   Clear
9:53 AM 69.1 °F - 50.0 °F 51% 30.00 in 10.0 mi SSW 4.6 mph - N/A   Clear
10:53 AM 73.0 °F - 52.0 °F 48% 30.00 in 10.0 mi South 4.6 mph - N/A   Clear
11:53 AM 78.1 °F - 53.1 °F 42% 30.00 in 10.0 mi SSW 5.8 mph - N/A   Clear
12:53 PM 80.1 °F 80.1 °F 55.0 °F 42% 29.99 in 10.0 mi SW 4.6 mph - N/A   Scattered Clouds
1:53 PM 84.0 °F 82.9 °F 55.0 °F 37% 29.98 in 5.0 mi Variable 3.5 mph - N/A   Haze
2:53 PM 84.0 °F 83.3 °F 57.0 °F 40% 29.97 in 10.0 mi NW 5.8 mph - N/A   Scattered Clouds
3:53 PM 82.9 °F 82.8 °F 59.0 °F 44% 29.96 in 10.0 mi NNW 3.5 mph - N/A   Partly Cloudy
4:40 PM 82.4 °F 82.5 °F 59.0 °F 45% 29.99 in 10.0 mi WNW 3.5 mph - N/A Thunderstorm Scattered Clouds
4:53 PM 81.0 °F 81.3 °F 59.0 °F 47% 29.96 in 10.0 mi NW 5.8 mph - N/A Thunderstorm Scattered Clouds
5:13 PM 77.0 °F - 66.2 °F 69% 29.98 in 10.0 mi NE 3.5 mph - 0.02 in Thunderstorm Mostly Cloudy
5:34 PM 75.2 °F - 66.2 °F 73% 30.00 in 8.0 mi NNW 4.6 mph - 0.02 in   Mostly Cloudy
5:53 PM 75.9 °F - 66.9 °F 74% 29.96 in 10.0 mi Variable 3.5 mph - 0.02 in   Mostly Cloudy
6:53 PM 73.0 °F - 66.0 °F 79% 29.99 in 10.0 mi North 6.9 mph - N/A   Mostly Cloudy
7:53 PM 72.0 °F - 64.9 °F 78% 30.01 in 10.0 mi Variable 3.5 mph - N/A   Overcast
8:53 PM 72.0 °F - 64.0 °F 76% 30.03 in 10.0 mi Variable 3.5 mph - N/A   Overcast
9:53 PM 70.0 °F - 66.0 °F 87% 30.06 in 10.0 mi Calm Calm - 0.04 in   Overcast
10:53 PM 69.1 °F - 64.9 °F 87% 30.07 in 9.0 mi NNE 4.6 mph - 0.00 in   Mostly Cloudy
11:35 PM 69.8 °F - 64.4 °F 83% 30.12 in 9.0 mi Variable 3.5 mph - N/A   Overcast
11:53 PM 69.1 °F - 64.0 °F 84% 30.09 in 9.0 mi Calm Calm - N/A   Mostly Cloudy